Regional Weather Roundup
Issued by NWS Newport/Morehead, NC

Current Version | Previous Version | Text Only | Print | Product List | Glossary Off
Versions: 1 2 3 4 5 6 7 8 9 10 11 12 13 14 15 16 17 18 19 20 21 22 23 24 25 26 27 28 29 30 31 32 33 34 35 36 37 38 39 40 41 42 43 44 45 46 47 48 49 50
427 ASUS42 KMHX 070413 RWRMHX WEATHER ROUNDUP FOR EASTERN NORTH CAROLINA NATIONAL WEATHER SERVICE NEWPORT/MOREHEAD CITY NC 1100 PM EST SAT FEB 06 2016 NOTE: "FAIR" INDICATES FEW OR NO CLOUDS BELOW 12,000 FEET WITH NO SIGNIFICANT WEATHER AND/OR OBSTRUCTIONS TO VISIBILITY NCZ015>017-031-032-045>047-102-103-070500- NORTH COAST CITY SKY/WX TMP DP RH WIND PRES REMARKS EDENTON CLOUDY 39 34 81 CALM 30.27F ELIZABETH CITY CLOUDY 39 33 79 N8 30.27F KITTY HAWK CLOUDY 42 32 68 N7 30.23F MANTEO CLOUDY 42 34 73 N13 30.24F $$ NCZ045>047-081-094-103-104-070500- CENTRAL COAST CITY SKY/WX TMP DP RH WIND PRES REMARKS FRISCO CLOUDY 45 38 76 NE12G17 30.21F SWANQUARTER N/A 41 N/A N/A N10G16 30.18F $$ NCZ095-097-098-100-101-070500- SOUTHERN COAST CITY SKY/WX TMP DP RH WIND PRES REMARKS BEAUFORT CLOUDY 42 36 79 NE9 30.18F CEDAR ISLAND N/A 43 N/A N/A N18G26 30.24F JACKSONVILLE CLOUDY 43 30 60 NE12 30.19F PINEY ISLAND CLOUDY N/A N/A N/A MISG 30.20F WILMINGTON LGT RAIN 43 31 62 N7 30.19F $$ NCZ011>013-027>030-043-044-078>080-089-090>093-098-070500- COASTAL PLAIN CITY SKY/WX TMP DP RH WIND PRES REMARKS AHOSKIE MOCLDY 32 28 86 CALM 30.29F CLINTON PTCLDY 43 27 53 N3 30.26R ELIZABETHTOWN CLOUDY 43 29 56 CALM 30.24R GOLDSBORO CLOUDY 43 25 49 NE8 30.21F GREENVILLE CLOUDY 41 32 70 NE7 30.24F HAVELOCK CLOUDY 43 33 68 NE14 30.21F KENANSVILLE N/A 42 29 59 CALM 30.23F KINSTON CLOUDY 42 31 64 NE9 30.23F NEW BERN CLOUDY 42 31 64 NE9 30.22F RICHLANDS CLOUDY 43 27 52 N8 30.21F ROCKY MOUNT CLOUDY 37 30 75 NE7 30.24F WASHINGTON CLOUDY 39 32 76 NE7 30.23F WHITEVILLE LGT RAIN 39 35 86 CALM 30.23R $$ AMZ130-135-150-152-154-156-158-170-250-252-270-ANZ085-086-088-633-658-670-070500- MARINE OBSERVATIONS STATION/POSITION TIME TEMP WIND PRES WAVE SWELL AIR SEA DIR/SP/G HT/PER HT/PER (UTC) (F) (DEG/KT/KT) (MB) (FT/S) (FT/S) CHESAPEAKE LIGHT 0400 40 40/ 7/ 9 1025.8 64 E VA BEACH 0350 44 53 10/ 14/ 17 1024.1 4/10 3/10 DUCK 0300 42 45 30/ 12/ 14 1024.4 2 E DUCK 0311 45 N/A 4/12 2/12 OREGON INLET 0300 43 46 360/ 10/ 14 1024.5 13E OREGON INLT 0400 46 N/A 5/11 3/11 HATTERAS CG 0300 45 51 10/ 18/ 21 1023.5 DIAMOND BUOY 0350 54 71 20/ 19/ 21 1022.4 6/10 5/10 CAPE LOOKOUT NOT AVBL BEAUFORT LAB 0300 43 50 20/ 13/ 17 1021.7 30 SE NEW RVR IN 0308 49 64 1019.4 30 SE NEW RVR IN 0325 64 N/A 7/11 2/11 27 SE WRIGHTSVLE 0308 53 68 50/ 23/ 29 1019.8 5 SE WRIGHTSVLE 0308 48 53 50/ 19/ 25 1022.0 225 S CAPE HAT 0350 63 69 100/ 17/ 21 N/A 7/10 5/10 41 SE CHARLESTON 0350 50 64 10/ 29/ 35 1017.6 8/ 6 3/11 $$

USA.gov is the U.S. government's official web portal to all federal, state and local government web resources and services.